Aérodrome :
LOGIN :

S'inscrire | Disclaimer

   EN    FR    IT 

 










Légende :    VFR   VFR Marginal   IFR   IFR Intensif   IFR Très Intensif
Visi : 
Plafond : 
>= 8 km
>= 3000ft
5 à 8 km
1000 à 3000 ft
1500m à 5 km
500 à 1000 ft
800 à 1500m
200 à 500 ft
< 800m
< 200 ft
Symboles :   Orages  Brouillard  Fortes neiges  Fortes précipitations  Vent > 20 kt
SIGMETs :   Divers  Orages  Givrage  Turbulence  Onde Orograph.  Cendres Volcan.






- Altitude de l'aérodrome : 194 ft
- Code IATA : LME


LFRM - Le Mans

DERNIER METAR :
  • 051700Z AUTO 22006KT 170V270 CAVOK 30/07 Q1014 NOSIG

METARs EXPIRÉS :
  • 051630Z AUTO 21006KT 160V260 CAVOK 31/07 Q1014 NOSIG
  • 051600Z AUTO 23007KT 190V260 CAVOK 31/07 Q1014 NOSIG
  • 051530Z AUTO 25006KT 190V340 CAVOK 31/07 Q1014 NOSIG
  • 051500Z AUTO 23005KT 160V290 CAVOK 31/06 Q1014 NOSIG
  • 051430Z AUTO 22008KT 170V270 CAVOK 30/06 Q1015 NOSIG

TAF TAF LFRM
Valide du 05 à 12h jusqu'au 06 à 12h UTC


051100Z 0512/0612 22010KT CAVOK
BECMG 0522/0524 VRB05KT



MET'MAP, la Météo Aéronautique d'un coup d'oeil ! - Copyright ORBIFLY Décembre 2007 - Disclaimer

ORBIFLY MET'MAP TEAM :

Programmation & Développement : Alexandra Zaïnal
Sur une idée originale de : Baudouin d'Aumeries
Assistance à la programmation : Marc-Olivier Méhu
Soutien technique & logistique : Manuel Goepfert

Contact : metmap@orbifly.com




SOURCES & CREDITS :

   NOAA